Location: Izdebno
(52.6670°N, 16.2170°E)
Time: 10:46:24
(UTC+02:00)

A-11 Canister half - Pass Details

Date: 02 March 2024
Orbit: 1513 x 1686 km, 47.2° (Epoch: 24 April)

Event Time Altitude Azimuth Distance (km) Brightness Sun altitude
Exits shadow 05:25:00 14° 274° (W) 3,606 10.3 -12.0°
Maximum altitude 05:33:16 47° 208° (SSW) 2,076 9.5 -10.7°
Drops below altitude 10° 05:42:22 10° 138° (SE) 3,805 11.7 -9.3°
Sets 05:45:33 0° 133° (SE) 4,765 12.4 -8.9°
